| time (UTC) | temp F | wind direction | speed MPH | gust MPH | rain 1hr in | rain 24hr in | rain mn in | humidity % | barometer mb |
| 20260505193059 | 59 | 197 | 0.0 | 2.0 | 0.00 | 0.50 | 0.42 | 79 | 1009.6 |
| 20260505191559 | 60 | 197 | 0.0 | 2.0 | 0.00 | 0.50 | 0.42 | 78 | 1009.6 |
| 20260505190058 | 61 | 197 | 0.0 | 1.0 | 0.00 | 0.50 | 0.42 | 76 | 1009.9 |
| 20260505184558 | 61 | 197 | 0.0 | 2.0 | 0.00 | 0.76 | 0.42 | 74 | 1009.8 |
| 20260505183058 | 62 | 197 | 0.0 | 2.0 | 0.00 | 0.76 | 0.42 | 73 | 1009.9 |
| 20260505181659 | 62 | 197 | 0.0 | 2.0 | 0.00 | 0.76 | 0.42 | 72 | 1010.0 |
| 20260505180021 | 63 | 197 | 2.0 | 5.0 | 0.00 | 0.76 | 0.42 | 70 | 1010.0 |
| 20260505174557 | 64 | 180 | 1.0 | 4.0 | 0.00 | 0.78 | 0.42 | 64 | 1009.9 |
| 20260505173056 | 65 | 177 | 1.0 | 6.0 | 0.00 | 0.78 | 0.42 | 63 | 1009.8 |
| 20260505171554 | 66 | 167 | 3.0 | 5.0 | 0.00 | 0.78 | 0.42 | 60 | 1009.8 |
| 20260505170054 | 67 | 173 | 2.0 | 6.0 | 0.00 | 0.78 | 0.42 | 59 | 1009.9 |
| 20260505164614 | 67 | 229 | 2.0 | 8.0 | 0.00 | 0.79 | 0.42 | 61 | 1010.0 |
| 20260505163101 | 66 | 242 | 2.0 | 8.0 | 0.00 | 0.79 | 0.42 | 63 | 1010.1 |
| 20260505161600 | 67 | 176 | 2.0 | 9.0 | 0.00 | 0.79 | 0.42 | 62 | 1010.1 |
| 20260505153016 | 70 | 254 | 4.0 | 15.0 | 0.00 | 1.02 | 0.42 | 55 | 1010.0 |
| 20260505151517 | 71 | 239 | 3.0 | 9.0 | 0.00 | 1.02 | 0.42 | 55 | 1010.0 |
| 20260505130105 | 71 | 261 | 4.0 | 10.0 | 0.00 | 1.35 | 0.42 | 57 | 1010.4 |
| 20260505124552 | 72 | 132 | 1.0 | 7.0 | 0.00 | 1.37 | 0.42 | 53 | 1010.4 |
| 20260505123046 | 72 | 300 | 1.0 | 8.0 | 0.00 | 1.37 | 0.42 | 54 | 1010.5 |
| 20260505121540 | 71 | 269 | 2.0 | 7.0 | 0.00 | 1.37 | 0.42 | 55 | 1010.7 |
| 20260505120037 | 70 | 235 | 2.0 | 8.0 | 0.00 | 1.37 | 0.42 | 58 | 1010.8 |
| 20260505114535 | 69 | 240 | 3.0 | 9.0 | 0.00 | 1.38 | 0.42 | 60 | 1010.9 |
| 20260505113008 | 69 | 205 | 3.0 | 9.0 | 0.00 | 1.38 | 0.42 | 62 | 1011.1 |
| 20260505111511 | 67 | 248 | 3.0 | 7.0 | 0.00 | 1.38 | 0.42 | 65 | 1011.2 |
| 20260505110106 | 67 | 250 | 2.0 | 8.0 | 0.00 | 1.38 | 0.42 | 65 | 1011.3 |
| 20260505101623 | 66 | 173 | 1.0 | 5.0 | 0.00 | 1.38 | 0.42 | 70 | 1011.3 |
| 20260505100057 | 65 | 269 | 3.0 | 8.0 | 0.00 | 1.38 | 0.42 | 71 | 1011.3 |
| 20260505094556 | 66 | 263 | 2.0 | 6.0 | 0.00 | 1.38 | 0.42 | 72 | 1011.3 |
| 20260505093052 | 66 | 217 | 3.0 | 7.0 | 0.00 | 1.38 | 0.42 | 73 | 1011.2 |
| 20260505091548 | 65 | 133 | 1.0 | 7.0 | 0.00 | 1.38 | 0.42 | 76 | 1011.3 |
| 20260505090044 | 64 | 175 | 2.0 | 6.0 | 0.00 | 1.38 | 0.42 | 81 | 1011.3 |
| 20260505084541 | 63 | 167 | 3.0 | 6.0 | 0.00 | 1.42 | 0.42 | 86 | 1011.2 |
| 20260505083036 | 61 | 238 | 1.0 | 9.0 | 0.00 | 1.42 | 0.42 | 88 | 1011.2 |
| 20260505081542 | 60 | 167 | 3.0 | 10.0 | 0.00 | 1.42 | 0.42 | 91 | 1011.1 |
| 20260505080033 | 59 | 221 | 1.0 | 5.0 | 0.00 | 1.42 | 0.42 | 92 | 1011.1 |
| 20260505074526 | 59 | 217 | 1.0 | 4.0 | 0.00 | 1.46 | 0.42 | 93 | 1011.0 |
| 20260505073020 | 58 | 207 | 2.0 | 5.0 | 0.00 | 1.46 | 0.42 | 93 | 1011.0 |
| 20260505071531 | 58 | 180 | 1.0 | 4.0 | 0.00 | 1.46 | 0.42 | 93 | 1010.9 |
| 20260505070014 | 58 | 152 | 1.0 | 4.0 | 0.00 | 1.46 | 0.42 | 93 | 1010.9 |
| 20260505064520 | 58 | 117 | 0.0 | 7.0 | 0.00 | 1.54 | 0.42 | 94 | 1010.6 |
| 20260505063014 | 57 | 98 | 0.0 | 6.0 | 0.00 | 1.54 | 0.42 | 94 | 1010.4 |
| 20260505061511 | 57 | 68 | 1.0 | 4.0 | 0.00 | 1.54 | 0.42 | 94 | 1010.3 |
| 20260505060039 | 57 | 71 | 1.0 | 4.0 | 0.00 | 1.54 | 0.42 | 94 | 1010.3 |
| 20260505053052 | 56 | 115 | 2.0 | 6.0 | 0.00 | 1.54 | 0.42 | 94 | 1010.1 |
| 20260505051538 | 56 | 105 | 1.0 | 4.0 | 0.00 | 1.54 | 0.42 | 94 | 1010.0 |
| 20260505041529 | 55 | 108 | 1.0 | 8.0 | 0.00 | 1.61 | 0.42 | 94 | 1009.8 |
| 20260505040036 | 55 | 53 | 0.0 | 2.0 | 0.00 | 1.61 | 0.42 | 94 | 1009.9 |
| 20260505034526 | 55 | 53 | 0.0 | 2.0 | 0.00 | 1.64 | 0.42 | 94 | 1009.8 |
| 20260505033031 | 54 | 53 | 0.0 | 1.0 | 0.00 | 1.64 | 0.42 | 94 | 1009.8 |
| 20260505031525 | 55 | 53 | 0.0 | 2.0 | 0.00 | 1.64 | 0.42 | 94 | 1009.8 |
| 20260505030027 | 55 | 161 | 1.0 | 8.0 | 0.00 | 1.64 | 0.42 | 94 | 1009.7 |
| 20260505024522 | 55 | 88 | 2.0 | 7.0 | 0.01 | 1.64 | 0.42 | 94 | 1009.7 |
| 20260505023022 | 55 | 85 | 1.0 | 4.0 | 0.01 | 1.64 | 0.42 | 94 | 1009.9 |
| 20260505021525 | 55 | 81 | 0.0 | 4.0 | 0.02 | 1.64 | 0.42 | 94 | 1010.3 |
| 20260505020020 | 55 | 71 | 0.0 | 2.0 | 0.02 | 1.64 | 0.42 | 94 | 1010.1 |
| 20260505014520 | 55 | 71 | 0.0 | 3.0 | 0.02 | 1.63 | 0.41 | 94 | 1010.2 |
| 20260505013020 | 55 | 92 | 2.0 | 8.0 | 0.02 | 1.63 | 0.41 | 93 | 1009.9 |
| 20260505011517 | 56 | 102 | 2.0 | 6.0 | 0.02 | 1.62 | 0.40 | 93 | 1010.1 |
| 20260505010017 | 56 | 98 | 4.0 | 9.0 | 0.03 | 1.62 | 0.40 | 94 | 1010.2 |
| 20260505004516 | 55 | 92 | 2.0 | 10.0 | 0.03 | 1.61 | 0.39 | 93 | 1010.2 |
| 20260505003014 | 55 | 98 | 3.0 | 10.0 | 0.06 | 1.61 | 0.39 | 93 | 1010.3 |
| 20260505001513 | 55 | 80 | 3.0 | 10.0 | 0.06 | 1.60 | 0.38 | 93 | 1010.2 |
| 20260505000011 | 55 | 76 | 3.0 | 10.0 | 0.09 | 1.59 | 0.37 | 94 | 1010.4 |
| 20260504234508 | 55 | 111 | 4.0 | 11.0 | 0.15 | 1.58 | 0.36 | 93 | 1010.5 |
| 20260504233010 | 55 | 97 | 4.0 | 10.0 | 0.18 | 1.55 | 0.33 | 93 | 1010.5 |
| 20260504231503 | 55 | 105 | 3.0 | 11.0 | 0.24 | 1.54 | 0.32 | 93 | 1010.5 |
| 20260504230002 | 55 | 113 | 5.0 | 12.0 | 0.27 | 1.49 | 0.27 | 93 | 1010.7 |
| 20260504224602 | 55 | 57 | 4.0 | 10.0 | 0.27 | 1.44 | 0.22 | 93 | 1010.8 |
| 20260504224501 | 55 | 71 | 3.0 | 10.0 | 0.26 | 1.43 | 0.21 | 93 | 1010.8 |
| 20260504223058 | 55 | 60 | 3.0 | 10.0 | 0.21 | 1.37 | 0.15 | 92 | 1011.2 |
| 20260504221556 | 55 | 65 | 4.0 | 11.0 | 0.16 | 1.30 | 0.08 | 92 | 1011.0 |
| 20260504220111 | 55 | 70 | 3.0 | 13.0 | 0.08 | 1.22 | 0.00 | 91 | 1011.3 |
| 20260504214555 | 55 | 85 | 2.0 | 9.0 | 0.03 | 1.17 | 1.17 | 90 | 1011.8 |
| 20260504213056 | 55 | 111 | 4.0 | 12.0 | 0.02 | 1.15 | 1.15 | 90 | 1012.0 |
| 20260504211554 | 55 | 96 | 3.0 | 13.0 | 0.00 | 1.13 | 1.13 | 89 | 1011.8 |
| 20260504210047 | 54 | 109 | 4.0 | 13.0 | 0.00 | 1.13 | 1.13 | 89 | 1011.7 |
| 20260504204546 | 54 | 109 | 3.0 | 12.0 | 0.00 | 1.13 | 1.13 | 90 | 1012.0 |
| 20260504203048 | 54 | 89 | 4.0 | 12.0 | 0.00 | 1.13 | 1.13 | 90 | 1012.1 |
| 20260504201542 | 54 | 106 | 4.0 | 9.0 | 0.00 | 1.13 | 1.13 | 91 | 1012.0 |
| 20260504200048 | 54 | 101 | 5.0 | 15.0 | 0.00 | 1.13 | 1.13 | 92 | 1012.0 |
| 20260504194549 | 54 | 98 | 3.0 | 9.0 | 0.06 | 1.13 | 1.13 | 92 | 1012.2 |